Location: Bakov nad Jizerou
(50.4784°N, 14.9394°E)
Time: 17:25:17
(UTC+00:00)

Cosmos 2322 - Pass Details

Date: 31 October 2021
Orbit: 841 x 854 km, 71.0° (Epoch: 04 December)

Event Time Altitude Azimuth Distance (km) Brightness Sun altitude
Exits shadow 04:08:55 14° 227° (SW) 2,188 5.4 -16.4°
Drops below altitude 10° 04:10:07 10° 217° (SW) 2,463 5.8 -16.2°
Sets 04:13:12 0° 200° (SSW) 3,391 6.7 -15.7°
